Location: Chassiers
(44.5520°N, 4.2963°E)
Time: 02:42:13
(UTC+00:00)

Daily predictions for brighter satellites

Satellite Brightness Start Highest point End
(mag) Time Altitude Azimuth Time Altitude Azimuth Time Altitude Azimuth
Cosmos 2344 3.9 02:37:40 58° NE 02:37:40 58° NE 02:43:57 10° NE
USA 234 4.0 02:54:26 10° NE 02:59:22 43° N 02:59:22 43° N
ADEOS Rocket 3.9 02:56:18 10° SE 03:01:21 39° ENE 03:06:32 10° N
MSX 4.5 03:28:12 10° N 03:32:03 43° N 03:32:03 43° N
Cosmos 1833 Rocket 3.2 03:33:50 44° SSE 03:35:17 57° ESE 03:40:49 10° NNE
ALOS 4.4 03:31:44 10° NE 03:35:38 25° E 03:39:30 10° SSE
CZ-4B R/B 4.1 03:33:15 10° ESE 03:35:50 20° ENE 03:37:09 16° NE
Cosmos 1626 4.0 03:39:55 30° E 03:39:58 30° E 03:43:14 10° NNE
NOSS 3-2 (C) 3.5 03:43:22 57° NNW 03:43:22 57° NNW 03:49:27 10° NNE
CENTAUR R/B 2.6 03:50:12 55° NW 03:50:25 56° NW 03:57:26 10° NNE
Cosmos 2369 4.0 03:49:30 19° NNW 03:53:37 64° ENE 03:59:12 10° SE
Cosmos 1656 3.9 03:55:15 52° SSW 03:55:15 52° SSW 03:59:48 10° S
Cosmos 1484 Rocket 4.3 03:54:36 10° NNE 03:58:12 36° E 04:01:42 10° SSE
Cosmos 2082 Rocket 3.0 03:52:51 10° S 03:58:13 49° ESE 04:03:37 10° NE
Cosmos 1461 3.4 03:57:49 53° SSE 03:58:37 63° ESE 04:03:16 10° NE
PSLV R/B 4.1 04:02:26 10° N 04:05:31 44° N 04:05:31 44° N
USA 290 3.6 04:06:41 35° SE 04:07:06 37° ESE 04:10:08 10° NE
ISS -2.7 04:09:06 43° NE 04:09:06 43° NE 04:11:30 10° ENE
CZ-2C R/B 2.3 04:03:27 10° N 04:08:23 67° WNW 04:08:51 62° WSW
Cosmos 2251 Rocket 4.2 04:04:18 10° S 04:09:30 54° ESE 04:14:43 10° NNE
Lacrosse 4 Rocket 2.8 04:18:23 24° NNW 04:18:23 24° NNW 04:20:33 10° NNE
Cosmos 1697 Rocket 2.6 04:16:50 22° NNW 04:20:34 69° WSW 04:26:11 10° SSE
COSMOS 2406 3.4 04:21:37 41° W 04:22:58 50° WNW 04:28:29 10° NNE
Meteor 1-31 Rocket 3.6 04:19:08 10° NNE 04:23:01 52° E 04:26:50 10° S
[s.n.46727] 3.5 04:25:26 46° ENE 04:25:26 46° ENE 04:27:31 10° ENE
[s.n.46723] 3.4 04:25:27 50° ENE 04:25:27 50° ENE 04:27:38 10° ENE
[s.n.46707] 3.5 04:25:36 47° ENE 04:25:36 47° ENE 04:27:41 10° ENE
[s.n.46708] 3.5 04:25:41 47° ENE 04:25:41 47° ENE 04:27:47 10° ENE
[s.n.46719] 3.5 04:25:47 47° ENE 04:25:47 47° ENE 04:27:52 10° ENE
[s.n.46724] 3.5 04:25:52 47° ENE 04:25:52 47° ENE 04:27:57 10° ENE
[s.n.46687] 3.5 04:25:57 47° ENE 04:25:57 47° ENE 04:28:03 10° ENE
[s.n.46696] 3.5 04:26:02 47° ENE 04:26:02 47° ENE 04:28:09 10° ENE
[s.n.46720] 3.5 04:26:08 47° ENE 04:26:08 47° ENE 04:28:14 10° ENE
[s.n.46676] 3.4 04:26:12 48° ENE 04:26:12 48° ENE 04:28:19 10° ENE
Lacrosse 5 rocket 1.3 04:25:46 50° NNW 04:25:46 50° NNW 04:29:16 10° NE
[s.n.46721] 3.4 04:26:18 48° ENE 04:26:18 48° ENE 04:28:25 10° ENE
[s.n.46728] 3.4 04:26:23 48° ENE 04:26:23 48° ENE 04:28:30 10° ENE
[s.n.46690] 3.4 04:26:28 48° ENE 04:26:28 48° ENE 04:28:36 10° ENE
[s.n.46694] 3.4 04:26:32 48° ENE 04:26:32 48° ENE 04:28:39 10° ENE
[s.n.46702] 3.4 04:26:39 49° ENE 04:26:39 49° ENE 04:28:47 10° ENE
[s.n.46679] 3.4 04:26:42 49° ENE 04:26:42 49° ENE 04:28:51 10° ENE
[s.n.46704] 3.3 04:26:44 52° ENE 04:26:44 52° ENE 04:28:58 10° ENE
[s.n.46712] 3.4 04:26:50 49° ENE 04:26:50 49° ENE 04:28:59 10° ENE
[s.n.46711] 3.4 04:26:59 49° ENE 04:26:59 49° ENE 04:29:07 10° ENE
[s.n.46684] 3.4 04:27:01 49° ENE 04:27:01 49° ENE 04:29:09 10° ENE
[s.n.46706] 3.4 04:27:09 50° ENE 04:27:09 50° ENE 04:29:18 10° ENE
[s.n.46678] 3.3 04:27:07 53° ENE 04:27:07 53° ENE 04:29:22 10° ENE
Meteor 2-5 Rocket 3.7 04:20:58 10° S 04:26:40 85° W 04:32:32 10° N
[s.n.46677] 3.3 04:27:17 50° ENE 04:27:17 50° ENE 04:29:27 10° ENE
[s.n.46671] 3.3 04:27:22 50° ENE 04:27:22 50° ENE 04:29:32 10° ENE
[s.n.46675] 3.3 04:27:27 50° ENE 04:27:27 50° ENE 04:29:38 10° ENE
[s.n.46674] 3.3 04:27:32 51° ENE 04:27:32 51° ENE 04:29:43 10° ENE
[s.n.46698] 3.3 04:27:38 51° ENE 04:27:38 51° ENE 04:29:48 10° ENE
[s.n.46699] 3.2 04:27:39 54° ENE 04:27:39 54° ENE 04:29:55 10° ENE
[s.n.46715] 3.3 04:27:48 51° ENE 04:27:48 51° ENE 04:29:59 10° ENE
[s.n.46714] 3.3 04:27:53 51° ENE 04:27:53 51° ENE 04:30:05 10° ENE
[s.n.46726] 3.3 04:27:59 52° ENE 04:27:59 52° ENE 04:30:10 10° ENE
[s.n.46703] 3.3 04:28:03 52° ENE 04:28:03 52° ENE 04:30:16 10° ENE
[s.n.46713] 3.3 04:28:09 52° ENE 04:28:09 52° ENE 04:30:22 10° ENE
[s.n.46717] 3.2 04:28:14 52° ENE 04:28:14 52° ENE 04:30:26 10° ENE
[s.n.46691] 3.2 04:28:16 55° ENE 04:28:16 55° ENE 04:30:33 10° ENE
[s.n.46693] 3.2 04:28:25 53° ENE 04:28:25 53° ENE 04:30:38 10° ENE
[s.n.46672] 3.2 04:28:30 53° ENE 04:28:30 53° ENE 04:30:43 10° ENE
[s.n.46701] 3.2 04:28:35 53° ENE 04:28:35 53° ENE 04:30:48 10° ENE
[s.n.46685] 3.2 04:28:41 53° ENE 04:28:41 53° ENE 04:30:54 10° ENE
[s.n.46709] 3.2 04:28:46 53° ENE 04:28:46 53° ENE 04:31:00 10° ENE
[s.n.46683] 3.2 04:28:50 54° ENE 04:28:50 54° ENE 04:31:04 10° ENE
[s.n.46695] 3.2 04:28:55 54° ENE 04:28:55 54° ENE 04:31:10 10° ENE
[s.n.46688] 3.2 04:29:02 54° ENE 04:29:02 54° ENE 04:31:16 10° ENE
[s.n.46729] 3.2 04:29:06 54° ENE 04:29:06 54° ENE 04:31:20 10° ENE
[s.n.46697] 3.2 04:29:09 55° ENE 04:29:09 55° ENE 04:31:24 10° ENE
[s.n.46725] 3.2 04:29:14 54° ENE 04:29:14 54° ENE 04:31:28 10° ENE
[s.n.46682] 3.1 04:29:19 55° ENE 04:29:19 55° ENE 04:31:34 10° ENE
[s.n.46680] 3.1 04:29:25 55° ENE 04:29:25 55° ENE 04:31:40 10° ENE
[s.n.46718] 3.1 04:29:30 55° ENE 04:29:30 55° ENE 04:31:46 10° ENE
[s.n.46710] 3.1 04:29:35 55° ENE 04:29:35 55° ENE 04:31:51 10° ENE
[s.n.46673] 3.1 04:29:46 56° ENE 04:29:46 56° ENE 04:32:02 10° ENE
[s.n.46700] 3.1 04:29:51 56° ENE 04:29:51 56° ENE 04:32:08 10° ENE
[s.n.46705] 3.1 04:29:56 56° ENE 04:29:56 56° ENE 04:32:13 10° ENE
[s.n.46692] 3.1 04:30:02 57° ENE 04:30:02 57° ENE 04:32:19 10° ENE
[s.n.46686] 3.1 04:30:07 57° ENE 04:30:07 57° ENE 04:32:24 10° ENE
[s.n.46716] 3.1 04:30:12 57° ENE 04:30:12 57° ENE 04:32:30 10° ENE
[s.n.46722] 3.1 04:30:17 57° ENE 04:30:17 57° ENE 04:32:35 10° ENE
[s.n.46689] 3.0 04:30:23 58° ENE 04:30:23 58° ENE 04:32:41 10° ENE
[s.n.46681] 3.0 04:30:28 58° ENE 04:30:28 58° ENE 04:32:47 10° ENE
FENGYUN 3A 3.7 04:25:00 10° NNE 04:30:28 87° ESE 04:35:55 10° SSW
SAR-Lupe-4 3.6 04:33:26 10° SSE 04:37:00 78° ENE 04:40:35 10° N
ATLAS 3B R/B 2.5 04:32:59 15° SW 04:38:29 77° NW 04:45:10 10° NE
ERS-2 2.3 04:35:22 10° S 04:38:52 46° W 04:39:17 44° WNW
Cosmos 1726 Rocket 3.5 04:35:49 10° N 04:40:18 82° W 04:44:45 10° S
Cosmos 967 Rocket 4.4 04:37:13 14° NW 04:42:42 65° WSW 04:48:52 10° SSE
USA 234 4.4 04:37:16 10° NE 04:42:48 30° N 04:46:42 17° NW
Cosmos 1980 Rocket 2.1 04:37:45 10° NNW 04:43:22 84° WSW 04:48:58 10° SSE
Abrixas rocket 1.6 04:43:59 66° WNW 04:44:19 89° SW 04:47:10 10° ESE
ATLAS CENTAUR R/B 4.2 04:41:56 10° SSE 04:44:31 17° ESE 04:47:01 10° ENE
Meteor 2-13 Rocket 4.4 04:38:52 10° SSW 04:44:59 69° W 04:51:07 10° N
Cosmos 2228 3.1 04:41:08 10° NNW 04:45:24 52° W 04:49:39 10° S
Cosmos 1092 Rocket 3.9 04:39:47 10° SSW 04:45:56 77° W 04:52:13 10° N
Geosat 4.1 04:41:21 10° S 04:46:15 54° WSW 04:51:08 10° NW
ADEOS Rocket 3.5 04:42:19 10° SSW 04:47:03 29° W 04:51:51 10° NW
Nadezhda 4 Rocket 4.2 04:44:30 10° SSW 04:50:18 44° WNW 04:56:10 10° N
ADEOS 3.6 04:46:20 10° N 04:51:28 60° WNW 04:56:36 10° SSW
Aureole 3 3.7 04:49:38 10° N 04:53:53 88° W 04:59:18 10° S
CZ-3 R/B 3.9 04:35:59 14° WSW 04:53:56 36° SSW 05:01:06 10° SE
SAR-Lupe-1 3.9 04:51:21 10° S 04:54:53 67° WSW 04:58:28 10° NNW
Cosmos 1606 Rocket 3.9 04:51:50 10° NNW 04:56:05 43° W 05:00:19 10° SSW
Cosmos 1400 Rocket 2.7 04:52:53 10° NNW 04:56:47 62° W 05:00:36 10° S
CZ-4B R/B 3.9 04:53:01 10° N 04:57:11 62° WNW 05:01:07 10° SSW
NOSS 8 (A) 4.2 04:54:34 10° SSW 04:57:58 80° SE 05:00:56 10° NE
TELKOM 3 4.1 05:01:47 27° W 05:03:20 54° NNW 05:07:13 10° ENE
COSMO-SKYMED 1 2.5 05:00:48 10° S 05:05:08 75° WSW 05:09:30 10° NNW
CZ-4B R/B 2.4 05:04:59 10° SSW 05:07:56 26° W 05:10:16 14° NW
Cosmos 1300 3.4 05:06:48 10° NNW 05:10:14 31° W 05:13:37 10° SSW
ARGOS Delta rocket 4.2 05:05:16 10° N 05:10:37 63° WNW 05:16:02 10° SSW
ALOS 2.8 05:08:50 10° N 05:13:07 36° WNW 05:17:22 10° SW
Cosmos 2278 4.0 05:08:21 10° NW 05:13:44 47° WSW 05:19:06 10° S
Cosmos 1689 Rocket 2.2 05:11:43 10° S 05:14:34 48° W 05:17:25 10° NNW
Meteor 2-10 Rocket 3.5 05:10:01 10° N 05:15:04 83° ENE 05:20:10 10° SSE
Cosmos 1626 3.5 05:14:34 17° W 05:15:16 18° WNW 05:17:54 10° NNW
Cosmos 2322 Rocket 3.3 05:09:52 10° NNW 05:15:19 45° ENE 05:20:43 10° SE
SL-14 R/B 4.4 05:12:08 10° SW 05:15:25 24° WNW 05:18:45 10° NNW
Cosmos 1833 Rocket 3.7 05:15:37 13° WSW 05:19:35 26° NW 05:24:16 10° N
MOS 1 Rocket 4.3 05:16:21 10° SE 05:20:26 45° ENE 05:24:32 10° N
Meteor 2-8 Rocket 4.4 05:14:41 10° NNW 05:20:50 69° W 05:26:55 10° S
deb Chang Zheng 4 4.3 05:19:23 10° N 05:23:07 30° WNW 05:26:49 10° SW
Cosmos 2084 3.7 05:19:48 10° SW 05:24:01 52° NW 05:28:21 10° NNE
H-2A R/B 3.4 05:23:57 10° NNE 05:28:16 57° E 05:32:24 10° S
Cosmos 1315 Rocket 2.8 05:24:29 10° NNW 05:28:37 81° W 05:32:44 10° S
SJ-12 4.3 05:25:03 10° N 05:28:57 41° WNW 05:32:48 10° SW
Okean 1-7 Rocket 4.0 05:25:43 10° SSW 05:30:03 43° WNW 05:34:23 10° N
Cosmos 2058 Rocket 3.6 05:26:25 10° NNW 05:30:35 38° W 05:34:42 10° SSW
SL-27 R/B 3.6 05:27:39 10° S 05:31:09 51° ESE 05:34:41 10° NNE
Cosmos 1484 Rocket 4.2 05:29:40 10° NNW 05:32:20 18° WNW 05:34:57 10° WSW
H-2A R/B 2.7 05:31:15 10° NNE 05:35:05 88° WNW 05:38:57 10° SSW
Cosmos 1553 Rocket 4.0 05:31:59 10° NNW 05:38:02 65° W 05:44:01 10° S
Cosmos 1461 4.5 05:34:30 10° W 05:38:09 23° NW 05:41:54 10° NNE
Meteor PRIRODA 4.2 05:38:10 10° N 05:41:33 36° WNW 05:44:55 10° SW
USA 290 4.2 05:40:03 10° W 05:41:42 13° NW 05:43:22 10° NNW
Meteor 2-15 Rocket 4.5 05:36:14 10° N 05:42:23 87° W 05:48:28 10° S
Cosmos 2082 Rocket 3.1 05:37:43 10° WSW 05:42:32 29° NW 05:47:23 10° N
CENTAUR R/B 4.1 05:37:54 10° WNW 05:42:53 22° NNW 05:48:28 10° NNE
CREW DRAGON DEMO-1 DEB 2.7 05:40:48 10° WNW 05:43:50 89° S 05:46:50 10° ESE
Cosmos 614 Rocket 4.2 05:39:15 10° SW 05:44:12 46° WNW 05:49:07 10° N
ISS -2.4 05:42:22 10° WNW 05:45:17 26° N 05:48:12 10° NE
SJ-7 4.3 05:41:41 10° N 05:45:43 78° WNW 05:49:40 10° SSW
CZ-4B DEB 4.3 05:44:55 10° NNE 05:50:27 89° ESE 05:55:55 10° SSW
SL-16 R/B 2.2 05:45:52 10° NNW 05:51:34 82° WSW 05:57:14 10° SSE
